• Em Portugal
  • Lista de países
  • Para 7 dias
  • Temperatura da água
  • Mapas de satélite
  • Mapa do tempo
  • Widgets de tempo
  • user-avatar
    Iniciar Sessão

    Previsão horária em Cochabamba

    Hoje, 18 Setembro, Terça-feira

    Tempo Temperatura Precipitação Vento Pressão Humidade
    00:00 +13°C° 0 mm 2 m/s 554 mmHg 71%
    01:00 +13°C° 0 mm 2 m/s 554 mmHg 70%
    02:00 +12°C° 0 mm 2 m/s 553 mmHg 70%
    03:00 +12°C° 0 mm 2 m/s 553 mmHg 64%
    04:00 +10°C° 0 mm 2 m/s 553 mmHg 58%
    05:00 +10°C° 0 mm 2 m/s 552 mmHg 53%
    06:00 +13°C° 0 mm 2 m/s 553 mmHg 44%
    07:00 +14°C° 0 mm 2 m/s 555 mmHg 36%
    08:00 +16°C° 0 mm 2 m/s 556 mmHg 29%
    09:00 +18°C° 0 mm 2 m/s 556 mmHg 26%
    10:00 +20°C° 0 mm 2 m/s 557 mmHg 23%
    11:00 +21°C° 0 mm 2 m/s 557 mmHg 20%
    12:00 +23°C° 0.1 mm 2 m/s 557 mmHg 22%
    13:00 +24°C° 0.1 mm 3 m/s 557 mmHg 23%
    14:00 +24°C° 0.1 mm 3 m/s 556 mmHg 25%
    15:00 +23°C° 0.2 mm 4 m/s 556 mmHg 31%
    16:00 +22°C° 0.2 mm 4 m/s 555 mmHg 37%
    17:00 +21°C° 0.2 mm 5 m/s 554 mmHg 43%
    18:00 +20°C° 0 mm 4 m/s 554 mmHg 51%
    19:00 +18°C° 0 mm 4 m/s 554 mmHg 60%
    20:00 +16°C° 0 mm 3 m/s 553 mmHg 68%
    21:00 +16°C° 0.1 mm 3 m/s 553 mmHg 68%
    22:00 +15°C° 0.1 mm 2 m/s 553 mmHg 68%
    23:00 +14°C° 0.1 mm 2 m/s 554 mmHg 68%

    Amanhã, 19 Setembro, Quarta-feira

    Tempo Temperatura Precipitação Vento Pressão Humidade
    00:00 +14°C° 0 mm 2 m/s 553 mmHg 63%
    01:00 +14°C° 0 mm 2 m/s 553 mmHg 59%
    02:00 +13°C° 0 mm 2 m/s 552 mmHg 55%
    03:00 +13°C° 0 mm 2 m/s 552 mmHg 51%
    04:00 +12°C° 0 mm 2 m/s 552 mmHg 46%
    05:00 +12°C° 0 mm 2 m/s 552 mmHg 42%
    06:00 +14°C° 0 mm 2 m/s 553 mmHg 35%
    07:00 +16°C° 0 mm 1 m/s 554 mmHg 28%
    08:00 +19°C° 0 mm 1 m/s 556 mmHg 21%
    09:00 +21°C° 0 mm 1 m/s 557 mmHg 19%
    10:00 +23°C° 0 mm 2 m/s 557 mmHg 16%
    11:00 +24°C° 0 mm 2 m/s 558 mmHg 14%
    12:00 +25°C° 0.1 mm 2 m/s 558 mmHg 17%
    13:00 +26°C° 0.1 mm 3 m/s 557 mmHg 20%
    14:00 +26°C° 0.1 mm 4 m/s 557 mmHg 22%
    15:00 +25°C° 0.3 mm 4 m/s 556 mmHg 29%
    16:00 +23°C° 0.3 mm 5 m/s 555 mmHg 36%
    17:00 +22°C° 0.3 mm 5 m/s 555 mmHg 44%
    18:00 +21°C° 0.1 mm 5 m/s 555 mmHg 52%
    19:00 +19°C° 0.1 mm 4 m/s 554 mmHg 60%
    20:00 +17°C° 0.1 mm 4 m/s 554 mmHg 68%
    21:00 +17°C° 0.2 mm 3 m/s 555 mmHg 70%
    22:00 +16°C° 0.2 mm 2 m/s 555 mmHg 71%
    23:00 +16°C° 0.2 mm 1 m/s 556 mmHg 72%

    Depois de amanhã, 20 Setembro, Quinta-feira

    Tempo Temperatura Precipitação Vento Pressão Humidade
    00:00 +15°C° 0.1 mm 1 m/s 555 mmHg 73%
    01:00 +15°C° 0.1 mm 1 m/s 554 mmHg 74%
    02:00 +14°C° 0.1 mm 1 m/s 554 mmHg 75%
    03:00 +14°C° 0 mm 1 m/s 554 mmHg 74%
    04:00 +13°C° 0 mm 1 m/s 553 mmHg 73%
    05:00 +13°C° 0 mm 1 m/s 553 mmHg 73%
    06:00 +14°C° 0 mm 1 m/s 554 mmHg 64%
    07:00 +16°C° 0 mm 1 m/s 555 mmHg 55%
    08:00 +18°C° 0 mm 1 m/s 556 mmHg 46%
    09:00 +19°C° 0 mm 2 m/s 557 mmHg 40%
    10:00 +21°C° 0 mm 2 m/s 558 mmHg 33%
    11:00 +23°C° 0 mm 2 m/s 558 mmHg 27%
    12:00 +24°C° 0.2 mm 2 m/s 558 mmHg 29%
    13:00 +24°C° 0.2 mm 3 m/s 557 mmHg 31%
    14:00 +25°C° 0.2 mm 3 m/s 557 mmHg 34%
    15:00 +23°C° 0.7 mm 4 m/s 556 mmHg 39%
    16:00 +22°C° 0.7 mm 4 m/s 556 mmHg 44%
    17:00 +21°C° 0.7 mm 5 m/s 556 mmHg 49%
    18:00 +20°C° 0.5 mm 4 m/s 556 mmHg 56%
    19:00 +18°C° 0.5 mm 4 m/s 556 mmHg 63%
    20:00 +17°C° 0.5 mm 3 m/s 556 mmHg 70%
    21:00 +16°C° 0.2 mm 3 m/s 556 mmHg 71%
    22:00 +16°C° 0.2 mm 2 m/s 556 mmHg 72%
    23:00 +15°C° 0.2 mm 2 m/s 556 mmHg 74%

    21 Setembro, Sexta-feira

    Tempo Temperatura Precipitação Vento Pressão Humidade
    00:00 +15°C° 0.1 mm 2 m/s 556 mmHg 73%
    01:00 +15°C° 0.1 mm 2 m/s 555 mmHg 73%
    02:00 +14°C° 0.1 mm 1 m/s 555 mmHg 73%
    03:00 +14°C° 0 mm 1 m/s 554 mmHg 73%
    04:00 +13°C° 0 mm 1 m/s 554 mmHg 73%
    05:00 +13°C° 0 mm 1 m/s 554 mmHg 73%
    06:00 +14°C° 0 mm 1 m/s 555 mmHg 68%
    07:00 +15°C° 0 mm 1 m/s 556 mmHg 63%
    08:00 +17°C° 0 mm 2 m/s 557 mmHg 58%
    09:00 +18°C° 0 mm 2 m/s 558 mmHg 53%
    10:00 +19°C° 0 mm 2 m/s 558 mmHg 47%
    11:00 +21°C° 0 mm 2 m/s 558 mmHg 41%
    12:00 +21°C° 0.1 mm 2 m/s 558 mmHg 42%
    13:00 +22°C° 0.1 mm 3 m/s 557 mmHg 42%
    14:00 +22°C° 0.1 mm 3 m/s 557 mmHg 43%
    15:00 +22°C° 0.2 mm 3 m/s 557 mmHg 45%
    16:00 +21°C° 0.2 mm 4 m/s 556 mmHg 47%
    17:00 +21°C° 0.2 mm 4 m/s 556 mmHg 50%
    18:00 +19°C° 0.1 mm 4 m/s 556 mmHg 56%
    19:00 +18°C° 0.1 mm 3 m/s 556 mmHg 62%
    20:00 +17°C° 0.1 mm 3 m/s 556 mmHg 68%
    21:00 +17°C° 0.1 mm 3 m/s 556 mmHg 69%
    22:00 +16°C° 0.1 mm 2 m/s 556 mmHg 70%
    23:00 +16°C° 0.1 mm 2 m/s 556 mmHg 71%

    22 Setembro, Sábado

    Tempo Temperatura Precipitação Vento Pressão Humidade
    00:00 +16°C° 0 mm 1 m/s 555 mmHg 70%
    01:00 +15°C° 0 mm 1 m/s 555 mmHg 70%
    02:00 +15°C° 0 mm 1 m/s 554 mmHg 69%
    03:00 +15°C° 0 mm 1 m/s 554 mmHg 69%
    04:00 +14°C° 0 mm 1 m/s 554 mmHg 69%
    05:00 +14°C° 0 mm 1 m/s 554 mmHg 70%
    06:00 +15°C° 0 mm 2 m/s 555 mmHg 66%
    07:00 +16°C° 0 mm 2 m/s 556 mmHg 62%
    08:00 +17°C° 0 mm 2 m/s 557 mmHg 58%
    09:00 +18°C° 0.1 mm 2 m/s 557 mmHg 54%
    10:00 +19°C° 0.1 mm 3 m/s 557 mmHg 50%
    11:00 +21°C° 0.1 mm 3 m/s 558 mmHg 46%
    12:00 +21°C° 0.3 mm 3 m/s 557 mmHg 44%
    13:00 +22°C° 0.3 mm 3 m/s 557 mmHg 43%
    14:00 +23°C° 0.3 mm 4 m/s 556 mmHg 41%
    15:00 +22°C° 0.3 mm 4 m/s 556 mmHg 44%
    16:00 +22°C° 0.3 mm 4 m/s 555 mmHg 47%
    17:00 +21°C° 0.3 mm 5 m/s 554 mmHg 51%
    18:00 +20°C° 0.2 mm 4 m/s 555 mmHg 55%
    19:00 +19°C° 0.2 mm 4 m/s 555 mmHg 59%
    20:00 +17°C° 0.2 mm 3 m/s 555 mmHg 64%
    21:00 +17°C° 0.2 mm 3 m/s 555 mmHg 65%
    22:00 +16°C° 0.2 mm 3 m/s 555 mmHg 66%
    23:00 +16°C° 0.2 mm 2 m/s 555 mmHg 67%

    23 Setembro, Domingo

    Tempo Temperatura Precipitação Vento Pressão Humidade
    00:00 +16°C° 0.2 mm 2 m/s 555 mmHg 67%
    01:00 +15°C° 0.2 mm 2 m/s 554 mmHg 67%
    02:00 +15°C° 0.2 mm 1 m/s 554 mmHg 67%
    03:00 +15°C° 0.1 mm 1 m/s 554 mmHg 68%
    04:00 +14°C° 0.1 mm 1 m/s 553 mmHg 68%
    05:00 +14°C° 0.1 mm 1 m/s 553 mmHg 69%
    06:00 +15°C° 0.1 mm 2 m/s 554 mmHg 65%
    07:00 +16°C° 0.1 mm 2 m/s 555 mmHg 61%
    08:00 +17°C° 0.1 mm 2 m/s 556 mmHg 57%
    09:00 +19°C° 0.1 mm 2 m/s 557 mmHg 53%
    10:00 +20°C° 0.1 mm 3 m/s 557 mmHg 48%
    11:00 +21°C° 0.1 mm 3 m/s 558 mmHg 44%
    12:00 +22°C° 0.3 mm 4 m/s 557 mmHg 44%
    13:00 +22°C° 0.3 mm 4 m/s 557 mmHg 44%
    14:00 +22°C° 0.3 mm 5 m/s 556 mmHg 43%
    15:00 +21°C° 0.4 mm 5 m/s 556 mmHg 47%
    16:00 +21°C° 0.4 mm 5 m/s 555 mmHg 50%
    17:00 +20°C° 0.4 mm 5 m/s 555 mmHg 53%
    18:00 +19°C° 0.1 mm 5 m/s 555 mmHg 58%
    19:00 +18°C° 0.1 mm 4 m/s 555 mmHg 63%
    20:00 +16°C° 0.1 mm 3 m/s 555 mmHg 68%
    21:00 +16°C° 0.1 mm 3 m/s 555 mmHg 67%
    22:00 +16°C° 0.1 mm 2 m/s 556 mmHg 67%
    23:00 +16°C° 0.1 mm 2 m/s 556 mmHg 67%
    Mostrar mais